Farmington, NM

11:18 AM MDT on October 16, 2019 (GMT -0600)
Four Corners Regional

Weather History for KFMN - September, 2019

Change the Weather History Date:

Monday, September 23, 2019

  Actual Average Record
Temperature  
Mean Temperature 55 °F -  
Max Temperature 64 °F 77 °F 88 °F (1993)
Min Temperature 46 °F 45 °F 30 °F (2006)
Degree Days  
Heating Degree Days 10    
Growing Degree Days 5 (Base 50)    
Moisture  
Dew Point 41 °F    
Average Humidity 60    
Maximum Humidity 92    
Minimum Humidity 27    
Precipitation  
Precipitation 0.21 in - - ()
Sea Level Pressure  
Sea Level Pressure 30.16 in    
Wind  
Wind Speed 6 mph ()    
Max Wind Speed 15 mph    
Max Gust Speed 20 mph    
Visibility 9.3 miles    
Events Rain    
Averages and records for this station are not official NWS values.
T = Trace of Precipitation, MM = Missing Value Source: Averaged Metar Reports

Daily Weather History Graph

Daily Weather History Graph

Search for Another Location

Airport or City:

Astronomy

Sep. 23, 2019 Rise Set
Actual Time 7:01 AM MDT 7:08 PM MDT
Civil Twilight 6:35 AM MDT 7:34 PM MDT
Nautical Twilight 6:05 AM MDT 8:04 PM MDT
Astronomical Twilight 5:34 AM MDT 8:34 PM MDT
Moon 12:57 AM MDT (9/23) 3:55 PM MDT (9/23)
Length of Visible Light 12h 58m
Length of Day
12h 07m
Waning Crescent, 32% of the Moon is Illuminated
Sep 23
Waning Crescent
Sep 28
New
Oct 5
First Quarter
Oct 13
Full
Oct 21
Last Quarter

Hourly Weather History & Observations

Time (MDT) Temp. Dew Point Humidity Pressure Visibility Wind Dir Wind Speed Gust Speed Precip Events Conditions
12:53 AM 53.1 °F 21.0 °F 29% 30.05 in 10.0 mi East 8.1 mph - N/A   Clear
1:53 AM 48.0 °F 23.0 °F 37% 30.06 in 10.0 mi ENE 5.8 mph - N/A   Clear
2:53 AM 48.0 °F 25.0 °F 41% 30.06 in 10.0 mi East 5.8 mph - N/A   Clear
3:53 AM 48.0 °F 24.1 °F 39% 30.06 in 10.0 mi East 8.1 mph - N/A   Clear
5:53 AM 46.9 °F 26.1 °F 44% 30.06 in 10.0 mi East 9.2 mph - N/A   Clear
6:53 AM 48.0 °F 26.1 °F 42% 30.09 in 10.0 mi East 5.8 mph - N/A   Mostly Cloudy
7:53 AM 51.1 °F 27.0 °F 39% 30.09 in 10.0 mi ESE 15.0 mph - N/A   Mostly Cloudy
8:53 AM 54.0 °F 28.0 °F 37% 30.12 in 10.0 mi East 6.9 mph - N/A   Partly Cloudy
9:53 AM 57.9 °F 28.9 °F 33% 30.14 in 10.0 mi SSE 5.8 mph - N/A   Partly Cloudy
10:53 AM 60.1 °F 27.0 °F 28% 30.17 in 10.0 mi East 8.1 mph - N/A   Scattered Clouds
11:53 AM 64.0 °F 28.9 °F 27% 30.16 in 10.0 mi ESE 5.8 mph - N/A   Scattered Clouds
12:53 PM 64.9 °F 48.0 °F 54% 30.16 in 10.0 mi SW 12.7 mph - N/A   Mostly Cloudy
1:53 PM 64.0 °F 48.9 °F 58% 30.17 in 10.0 mi South 13.8 mph - N/A   Mostly Cloudy
2:33 PM 63.0 °F 48.9 °F 60% 30.26 in 10.0 mi SSW 10.4 mph - N/A   Mostly Cloudy
2:53 PM 63.0 °F 48.9 °F 60% 30.17 in 10.0 mi Variable 4.6 mph - N/A   Mostly Cloudy
3:32 PM 63.0 °F 48.9 °F 60% 30.25 in 10.0 mi Calm Calm - N/A   Mostly Cloudy
3:41 PM 64.0 °F 48.9 °F 58% 30.26 in 10.0 mi Calm Calm - N/A   Overcast
3:53 PM 63.0 °F 50.0 °F 63% 30.18 in 10.0 mi West 6.9 mph - N/A   Overcast
4:08 PM 62.1 °F 50.0 °F 65% 30.26 in 10.0 mi South 6.9 mph - N/A   Overcast
4:51 PM 60.8 °F 51.8 °F 72% 30.26 in 10.0 mi SSW 6.9 mph - 0.00 in Rain Light Rain
4:53 PM 60.1 °F 51.1 °F 72% 30.19 in 10.0 mi SSW 8.1 mph - 0.00 in Rain Light Rain
5:53 PM 55.9 °F 53.1 °F 90% 30.20 in 7.0 mi West 9.2 mph - 0.00 in Rain Light Rain
6:18 PM 55.9 °F 52.0 °F 87% 30.28 in 1.8 mi North 9.2 mph 19.6 mph 0.05 in Rain Heavy Rain
6:30 PM 55.0 °F 48.0 °F 77% 30.27 in 3.0 mi Calm Calm - 0.14 in Rain Rain
6:53 PM 54.0 °F 50.0 °F 86% 30.19 in 7.0 mi SSW 9.2 mph - 0.19 in Rain Rain
7:53 PM 55.9 °F 52.0 °F 87% 30.15 in 10.0 mi South 9.2 mph - 0.02 in   Overcast
8:53 PM 54.0 °F 51.1 °F 90% 30.16 in 10.0 mi East 5.8 mph - N/A   Mostly Cloudy
9:53 PM 54.0 °F 51.1 °F 90% 30.15 in 10.0 mi North 6.9 mph - N/A   Clear
10:53 PM 53.1 °F 50.0 °F 89% 30.14 in 10.0 mi NNE 4.6 mph - N/A   Partly Cloudy
11:53 PM 51.1 °F 48.9 °F 92% 30.12 in 10.0 mi Calm Calm - N/A   Clear